EW1994 Weather Reports


Display with metric or nautical units.
time (UTC)temp
F
wind
direction
speed
MPH
gust
MPH
rain 1hr
in
rain 24hr
in
rain mn
in
humidity
%
barometer
mb
20260906110023 49 254 0.0 0.0 0.00 0.00 0.00 92 1016.7
20260906104528 49 254 0.0 0.0 0.00 0.00 0.00 92 1016.8
20260906103026 50 254 0.0 0.0 0.00 0.00 0.00 92 1016.7
20260906101514 50 254 0.0 0.0 0.00 0.00 0.00 92 1016.8
20260906100021 50 254 0.0 0.0 0.00 0.00 0.00 92 1016.7
20260906094529 50 254 0.0 0.0 0.00 0.00 0.00 92 1016.5
20260906093040 50 254 0.0 0.0 0.00 0.00 0.00 92 1016.4
20260906091528 51 254 0.0 0.0 0.00 0.00 0.00 92 1016.4
20260906090016 51 254 0.0 0.0 0.00 0.00 0.00 92 1016.4
20260906084524 51 254 0.0 0.0 0.00 0.00 0.00 92 1016.6
20260906083030 51 254 0.0 0.0 0.00 0.00 0.00 92 1016.7
20260906081534 51 254 0.0 0.0 0.00 0.00 0.00 91 1016.8
20260906080030 52 254 0.0 0.0 0.00 0.00 0.00 91 1016.7
20260906074523 52 254 0.0 0.0 0.00 0.00 0.00 91 1016.8
20260906073028 52 254 0.0 0.0 0.00 0.00 0.00 91 1016.9
20260906071532 53 254 0.0 0.0 0.00 0.00 0.00 91 1016.9
20260906070032 53 254 0.0 0.0 0.00 0.00 0.00 91 1016.9
20260906064535 53 254 0.0 0.0 0.00 0.00 0.00 91 1017.0
20260906063020 53 254 0.0 0.0 0.00 0.00 0.00 90 1017.0
20260906061534 54 254 0.0 0.0 0.00 0.00 0.00 90 1017.2
20260906060029 54 254 0.0 0.0 0.00 0.00 0.00 89 1017.1
20260906054530 54 254 0.0 0.0 0.00 0.00 0.00 89 1017.1
20260906053033 55 254 0.0 0.0 0.00 0.00 0.00 89 1017.0
20260906051524 55 254 0.0 0.0 0.00 0.00 0.00 89 1017.0
20260906050030 56 254 0.0 0.0 0.00 0.00 0.00 89 1017.1
20260906044534 56 254 0.0 0.0 0.00 0.00 0.00 88 1017.3
20260906043033 57 254 0.0 0.0 0.00 0.00 0.00 87 1017.5
20260906041540 57 254 0.0 0.0 0.00 0.00 0.00 87 1017.6
20260906040027 58 254 0.0 0.0 0.00 0.00 0.00 86 1017.6
20260906034508 58 254 0.0 0.0 0.00 0.00 0.00 85 1017.5
20260906033016 59 254 0.0 0.0 0.00 0.00 0.00 84 1017.3
20260906031517 59 254 0.0 0.0 0.00 0.00 0.00 83 1017.3
20260906030025 60 254 0.0 0.0 0.00 0.00 0.00 81 1017.2
20260906024528 61 254 0.0 0.0 0.00 0.00 0.00 80 1017.2
20260906023009 63 254 0.0 0.0 0.00 0.00 0.00 81 1017.2
20260906021516 63 254 0.0 0.0 0.00 0.01 0.00 77 1017.2
20260906020023 64 254 0.0 0.0 0.00 0.01 0.00 75 1017.1
20260906014533 65 254 0.0 0.0 0.00 0.02 0.00 73 1017.1
20260906013030 66 254 0.0 0.0 0.00 0.05 0.00 70 1017.0
20260906011512 67 254 0.0 1.0 0.00 0.06 0.00 65 1016.9
20260906010018 68 193 0.0 2.0 0.00 0.07 0.00 62 1017.0
20260906004525 68 70 0.0 3.0 0.00 0.10 0.00 64 1016.9
20260906003027 69 94 0.0 3.0 0.00 0.19 0.00 61 1016.9
20260906001530 69 55 0.0 3.0 0.00 0.19 0.00 61 1016.9
20260906000017 69 109 0.0 2.0 0.00 0.19 0.00 64 1016.8
20260905234521 69 250 1.0 3.0 0.00 0.19 0.00 62 1016.9
20260905233026 69 33 0.0 3.0 0.00 0.19 0.00 62 1017.0
20260905231531 68 243 0.0 4.0 0.00 0.19 0.00 61 1017.1
20260905230032 68 100 0.0 3.0 0.00 0.19 0.00 64 1017.2
20260905224521 67 63 0.0 3.0 0.00 0.19 0.00 65 1017.3
20260905223026 65 173 0.0 1.0 0.00 0.19 0.00 72 1017.4
20260905221535 65 279 0.0 2.0 0.00 0.19 0.00 74 1017.5
20260905220033 66 236 0.0 2.0 0.00 0.19 0.00 74 1017.7
20260905214532 65 246 0.0 2.0 0.00 0.19 0.00 77 1017.7
20260905213030 64 238 0.0 2.0 0.00 0.19 0.00 78 1017.8
20260905211529 64 76 0.0 2.0 0.00 0.19 0.00 80 1017.8
20260905210032 63 43 0.0 1.0 0.00 0.19 0.00 80 1017.9
20260905204531 63 304 0.0 2.0 0.00 0.19 0.00 79 1018.0
20260905203016 65 262 1.0 3.0 0.00 0.19 0.00 77 1018.0
20260905201526 65 56 0.0 6.0 0.00 0.19 0.00 77 1018.1
20260905200031 65 72 0.0 4.0 0.00 0.19 0.00 76 1018.2
20260905194532 64 116 0.0 3.0 0.00 0.19 0.00 82 1018.2
20260905193033 61 78 0.0 3.0 0.00 0.19 0.00 82 1018.2
20260905191521 61 51 0.0 1.0 0.00 0.19 0.00 83 1018.2
20260905190030 61 37 0.0 1.0 0.00 0.19 0.00 83 1018.3
20260905184530 61 122 0.0 3.0 0.00 0.19 0.00 83 1018.5
20260905183012 60 48 0.0 2.0 0.00 0.19 0.00 86 1018.5
20260905181517 59 98 0.0 3.0 0.00 0.19 0.00 88 1018.7
20260905180023 59 94 0.0 0.0 0.00 0.19 0.00 89 1018.7
20260905174533 59 94 0.0 0.0 0.00 0.19 0.00 88 1018.8
20260905173037 59 95 0.0 2.0 0.00 0.19 0.00 88 1018.7
20260905171512 58 102 0.0 1.0 0.00 0.19 0.00 90 1018.7
20260905170018 57 105 0.0 2.0 0.00 0.19 0.00 93 1018.5
20260905164528 56 139 0.0 1.0 0.00 0.19 0.00 94 1018.5
20260905163032 55 76 0.0 2.0 0.00 0.19 0.00 95 1018.5
20260905161531 54 265 0.0 0.0 0.00 0.19 0.00 95 1018.4
20260905160015 53 265 0.0 0.0 0.00 0.19 0.00 94 1018.4
20260905154521 52 265 0.0 0.0 0.00 0.19 0.00 94 1018.4
20260905153030 52 265 0.0 0.0 0.00 0.19 0.00 94 1018.4
20260905151534 51 265 0.0 0.0 0.00 0.19 0.00 94 1018.3
20260905150031 51 265 0.0 0.0 0.00 0.19 0.00 94 1018.2
20260905144520 50 265 0.0 0.0 0.00 0.19 0.00 94 1018.0
20260905143029 50 265 0.0 0.0 0.00 0.19 0.00 94 1017.9
20260905141530 49 265 0.0 0.0 0.00 0.19 0.00 94 1017.9
20260905140031 49 265 0.0 0.0 0.00 0.19 0.00 94 1017.9
20260905134535 49 265 0.0 0.0 0.00 0.19 0.00 94 1017.7
20260905133019 49 265 0.0 0.0 0.00 0.19 0.00 94 1017.8
20260905131542 49 265 0.0 0.0 0.00 0.19 0.00 94 1017.7
20260905130030 49 265 0.0 0.0 0.00 0.19 0.00 94 1017.7
20260905124541 49 265 0.0 0.0 0.00 0.19 0.00 94 1017.6
20260905123031 49 265 0.0 0.0 0.00 0.19 0.00 94 1017.5
20260905121529 49 265 0.0 0.0 0.00 0.19 0.00 94 1017.4
20260905120029 49 265 0.0 0.0 0.00 0.19 0.00 94 1017.4
20260905114539 49 265 0.0 0.0 0.00 0.19 0.00 93 1017.5
20260905113036 49 265 0.0 0.0 0.00 0.19 0.00 93 1017.4
20260905111546 49 265 0.0 0.0 0.00 0.19 0.00 93 1017.4